Skip Page Navigation
NASA JPL Caltech
NASA Logo - Jet Propulsion Laboratory + View the NASA Portal
+ Center for Near-Earth Object Studies
JPL Home Earth Solar System Stars & Galaxies Technology
JPL Solar System Dynamics
BODIES ORBITS EPHEMERIDES TOOLS PHYSICAL DATA DISCOVERY FAQ SITE MAP
IMPORTANT: The SSD Announcement email list is now available. Major changes are coming in the near future, including possible hostname and/or URL changes. To be notified of such changes, subscribe to this email list.

Please visit this page for more details.


JPL Small-Body Database Browser
Search: [ help ]  
423100 (2004 BX1)
Classification: Apollo [NEO]          SPK-ID: 2423100
Ephemeris | Orbit Diagram | Orbital Elements | Mission Design | Physical Parameters | Discovery Circumstances | Close-Approach Data ]

[ show orbit diagram ]
Orbital Elements at Epoch 2459000.5 (2020-May-31.0) TDB
Reference: JPL 30 (heliocentric ecliptic J2000)
 Element Value Uncertainty (1-sigma)   Units 
e .8380332228742771 4.4509e-08  
a 2.411558035730332 1.3897e-08 au
q .3905922828988809 1.0702e-07 au
i 19.48730223765044 1.2148e-05 deg
node 92.78522402546567 2.7647e-05 deg
peri 168.8550906173172 2.8672e-05 deg
M 116.736461296549 9.0035e-06 deg
tp 2458556.943419017021
(2019-Mar-14.44341902)
3.1505e-05 TDB
period 1367.870564006833
3.75
1.1824e-05
3.237e-08
d
yr
n .2631827962913906 2.2749e-09 deg/d
Q 4.432523788561784 2.5543e-08 au
  Orbit Determination Parameters
   # obs. used (total)      96  
   data-arc span      5490 days (15.03 yr)  
   first obs. used      2004-01-17  
   last obs. used      2019-01-28  
   planetary ephem.      DE431  
   SB-pert. ephem.      SB431-N16  
   condition code      0  
   norm. resid. RMS      .62349  
   source      ORB  
   producer      Otto Matic  
   solution date      2019-Feb-01 09:02:06  

Additional Information
 Earth MOID = .288077 au 
 Jupiter MOID = .726044 au 
 T_jup = 2.858 
[ show covariance matrix ]

Ephemeris | Orbit Diagram | Orbital Elements | Mission Design | Physical Parameters | Discovery Circumstances | Close-Approach Data ]

Physical Parameter Table
Parameter Symbol Value Units Sigma Reference Notes
absolute magnitude H 18.3   n/a MPO472249  

423100 (2004 BX1)          Discovered 2004-Jan-17 by NEAT at Palomar
Reference: Last Updated: 2015-02-04

[ show close-approach data ]
Ephemeris | Orbit Diagram | Orbital Elements | Mission Design | Physical Parameters | Discovery Circumstances | Close-Approach Data ]
ABOUT SSD CREDITS/AWARDS PRIVACY/COPYRIGHT GLOSSARY LINKS
FirstGov 2020-Apr-04 13:06 UT
(server date/time)  
NASA Home Page
Site Manager:   Ryan S. Park
Webmaster  Alan B. Chamberlin